Location: ???
(32.0469°N, 34.7592°E)
Time: 22:14:17
(UTC+00:00)

Daily predictions for brighter satellites

Satellite Brightness Start Highest point End
(mag) Time Altitude Azimuth Time Altitude Azimuth Time Altitude Azimuth
Cosmos 1500 3.2 17:01:27 10° N 17:05:17 68° E 17:09:06 10° SSE
Centaur AC-125 3.1 17:04:04 10° WSW 17:06:45 42° SSE 17:13:57 10° E
STARLINK-1218 4.2 17:03:00 10° SSW 17:06:47 36° SE 17:10:35 10° ENE
SL-08 RB Rocket 4.5 17:04:05 10° SE 17:08:18 35° ENE 17:12:28 10° N
Meteor 1-5 Rocket 4.2 17:04:19 10° N 17:09:46 79° E 17:15:22 10° S
STARLINK-1254 4.0 17:07:52 10° SSW 17:11:45 41° SE 17:15:38 10° ENE
Meteor 1-11 Rocket 3.9 17:06:42 10° N 17:12:14 56° E 17:17:39 10° SSE
Cosmos 1844 Rocket 2.7 17:07:07 10° S 17:12:43 66° ESE 17:18:20 10° NNE
Cosmos 1812 3.9 17:12:10 10° SSW 17:15:51 46° W 17:19:34 10° N
STARLINK-1231 3.9 17:12:46 10° SSW 17:16:43 46° SE 17:20:41 10° NE
ASTEX 1 4.2 17:13:58 10° SE 17:18:17 32° ENE 17:22:37 10° NNE
NOSS 2-3 (D) 4.4 17:15:34 10° SSE 17:18:59 25° ESE 17:22:35 10° NE
GPS 2-04 Rocket1 4.5 17:18:49 10° SSE 17:19:48 11° SE 17:20:11 11° SE
STARLINK-1232 3.7 17:17:40 10° SSW 17:21:41 52° SE 17:25:42 10° NE
STARLINK-1149 4.4 17:20:21 10° NNW 17:24:16 40° NE 17:27:38 13° ESE
Cosmos 1536 3.2 17:20:35 10° N 17:24:29 45° E 17:28:22 10° SSE
STARLINK-1208 3.6 17:22:34 10° SSW 17:26:38 59° SE 17:30:42 10° NE
Cosmos 1666 3.0 17:23:49 10° N 17:27:34 49° E 17:31:16 10° SSE
USA 229 DEB 3.5 17:22:26 10° SSW 17:28:51 83° ESE 17:35:33 10° NNE
USA 229 3.5 17:22:34 10° SSW 17:28:58 82° ESE 17:35:40 10° NNE
STARLINK-1180 4.2 17:25:18 10° NNW 17:29:17 45° NE 17:32:27 15° ESE
STARLINK-1271 3.5 17:27:30 10° SSW 17:31:36 67° SE 17:35:43 10° NE
Cosmos 2084 Rocket 3.7 17:27:37 10° SW 17:31:50 71° WNW 17:36:07 10° NNE
SJ-6B 2.7 17:29:27 10° SSE 17:33:12 69° ENE 17:36:56 10° N
Cosmos 1862 Rocket 3.6 17:28:52 10° S 17:33:19 84° W 17:37:44 10° N
STARLINK-1153 4.1 17:30:14 10° NNW 17:34:15 50° NE 17:37:13 17° ESE
SPOT 3 Rocket 4.1 17:30:22 12° SE 17:34:44 42° ENE 17:39:33 10° N
Cosmos 1844 3.7 17:30:09 10° SSW 17:35:45 84° ESE 17:41:28 10° NNE
STARLINK-1154 3.5 17:32:27 10° SW 17:36:35 76° SE 17:40:42 10° NE
NOSS 3-1 (C) 3.3 17:32:01 10° SW 17:37:14 76° WNW 17:43:07 10° NNE
FREGAT/IRIS 2.8 17:34:51 10° S 17:37:28 57° W 17:40:07 10° NNW
Meteor 1-27 Rocket 4.5 17:32:10 10° SSW 17:37:59 59° W 17:43:48 10° N
NOSS 3-1 (A) 3.1 17:33:08 10° SSW 17:38:15 60° ESE 17:43:58 10° NE
Cosmos 1733 Rocket 3.0 17:34:15 10° N 17:38:38 78° E 17:42:57 10° S
STARLINK-1132 3.9 17:35:10 10° NW 17:39:14 56° NE 17:42:00 19° ESE
Okean 1-7 3.9 17:38:14 16° SE 17:40:55 29° E 17:44:38 10° NNE
STARLINK-1197 3.5 17:37:24 10° SW 17:41:32 86° SE 17:45:41 10° NE
Cosmos 1513 Rocket 4.5 17:36:01 10° N 17:42:04 65° E 17:48:09 10° SSE
Meteor 2-11 Rocket 4.5 17:36:28 10° N 17:42:35 85° W 17:48:39 10° S
MOS 1 Rocket 3.2 17:38:24 10° N 17:42:50 81° WNW 17:47:06 10° SSW
STARLINK-1177 3.8 17:40:08 10° NW 17:44:14 63° NE 17:46:48 22° ESE
Resurs 01 Rocket 2.6 17:44:09 19° ESE 17:46:28 30° ENE 17:50:21 10° N
STARLINK-1198 3.6 17:42:21 10° SW 17:46:29 85° NW 17:50:38 10° NE
H-2A R/B 3.0 17:42:16 10° S 17:46:59 45° W 17:51:49 10° NNW
CZ-2C R/B 4.1 17:42:41 10° S 17:47:40 46° W 17:52:57 10° NNW
STARLINK-1167 3.6 17:45:05 10° NW 17:49:13 71° NE 17:51:35 24° SE
NOSS 2-3 (C) 3.4 17:45:31 10° SSW 17:49:36 62° ESE 17:54:01 10° NE
STARLINK-1199 3.8 17:47:22 10° SW 17:51:30 76° NW 17:55:38 10° NE
Cosmos 1624 Rocket 4.5 17:46:57 10° S 17:51:51 40° E 17:56:48 10° NNE
Hubble Space Telescope 1.1 17:48:53 10° WSW 17:52:52 47° S 17:54:50 26° ESE
Cosmos 1464 Rocket 4.0 17:47:21 10° N 17:53:44 81° E 18:00:00 11° S
STARLINK-1168 3.6 17:50:02 10° NW 17:54:11 79° NE 17:56:21 27° SE
STARLINK-1210 4.0 17:52:21 10° SW 17:56:27 67° NW 18:00:34 10° NE
USA 186 3.7 17:54:53 10° SW 17:56:36 18° W 17:58:22 10° NW
Meteor 1-4 Rocket 3.9 17:58:46 21° E 17:58:46 21° E 18:00:58 10° NE
STARLINK-1164 3.5 17:55:02 10° NW 17:59:10 89° NE 18:01:09 30° SE
STARLINK-1219 4.2 17:57:22 10° SW 18:01:26 60° NW 18:05:32 10° NE
STARLINK-1182 3.6 18:00:01 10° NW 18:04:09 82° SW 18:05:56 33° SE
Cosmos 1371 Rocket 3.9 18:00:26 10° S 18:05:39 65° ESE 18:10:50 10° NNE
STARLINK-1211 4.4 18:02:22 10° WSW 18:06:24 53° NW 18:10:28 10° NE
Cosmos 1703 Rocket 3.4 18:03:43 16° S 18:07:08 76° E 18:11:27 10° N
GOES 2 Rocket 4.0 18:00:16 10° W 18:07:48 63° S 18:11:05 27° ESE
STARLINK-1163 3.6 18:04:58 10° NW 18:09:06 72° SW 18:10:43 35° SSE
Delta 128 4.1 18:05:03 10° WSW 18:10:55 56° S 18:13:15 31° ESE
STARLINK-1172 3.8 18:10:00 10° NW 18:14:05 64° SW 18:15:31 37° SSE
Cosmos 2251 Rocket 4.0 18:12:41 10° NNW 18:17:48 56° WSW 18:21:24 19° S
OAO 3 Copernicus 4.2 18:12:59 10° WNW 18:18:03 87° SSW 18:20:08 36° ESE
STARLINK-1145 3.9 18:14:59 10° NW 18:19:02 56° SW 18:20:17 39° S
Gbstr 26 Del rocket 4.4 18:12:39 10° NW 18:20:40 78° SW 18:24:30 30° SSE
Tsikada Rocket 3.9 18:14:26 10° S 18:20:41 89° W 18:26:54 10° N
Cosmos 1743 2.5 18:18:58 10° N 18:22:46 80° E 18:23:34 54° SSE
STARLINK-1161 4.1 18:19:58 10° NW 18:23:59 50° SW 18:25:02 39° S
BREEZE-M DEB (TANK) 3.9 18:22:34 10° NNW 18:24:21 27° NNE 18:24:21 27° NNE
Cosmos 1544 4.1 18:22:41 10° NNE 18:25:25 31° ENE 18:25:25 31° ENE
Spot 2 Rocket 4.1 18:24:56 35° ESE 18:26:04 40° ENE 18:30:46 10° N
Cosmos 1908 Rocket 3.6 18:22:27 10° N 18:26:54 80° W 18:28:42 36° S
SAR-Lupe-2 3.7 18:24:38 10° NNE 18:27:54 56° ENE 18:27:54 56° ENE
Cosmos 1833 Rocket 4.5 18:24:49 10° NNE 18:28:13 16° ENE 18:29:27 15° ENE
DNEPR-1 R/B 4.1 18:22:37 10° NNW 18:28:24 72° WSW 18:30:16 38° S
Resurs 1-3 4.2 18:26:10 24° SSW 18:28:35 52° W 18:32:53 10° NNW
STARLINK-1160 4.3 18:24:59 10° WNW 18:28:56 44° SW 18:29:49 38° SSW
STARLINK-1170 4.5 18:30:03 10° WNW 18:33:54 39° SW 18:34:37 35° SSW
Cosmos 2056 Rocket 3.5 18:29:13 10° SSW 18:34:20 77° WNW 18:39:27 10° NNE
Meteor 2-9 Rocket 4.3 18:29:51 10° N 18:35:06 52° E 18:36:09 45° ESE
CZ-2C R/B 4.3 18:30:12 10° N 18:35:11 34° WNW 18:40:11 10° SW
Cosmos 1975 3.0 18:32:44 10° N 18:36:35 55° ENE 18:36:35 55° ENE
SEDSat Delta rocket 3.9 18:31:18 10° W 18:38:07 85° S 18:40:57 36° E
H-2A R/B 2.8 18:36:27 10° WSW 18:39:32 36° S 18:40:01 35° S
Meteor 1-19 Rocket 4.3 18:36:26 18° SSW 18:40:35 72° W 18:46:16 10° N
STARLINK-1159 4.4 18:37:21 10° NNW 18:41:15 39° NE 18:41:33 38° NE
ATLAS 3B CENTAUR R/B 3.4 18:33:59 10° SW 18:45:01 37° S 18:45:38 36° SSE
Cosmos 2278 Rocket 2.1 18:42:23 26° SSW 18:45:43 83° ESE 18:51:25 10° NNE
STARLINK-1171 4.3 18:42:17 10° NNW 18:46:15 43° NE 18:46:21 43° NE
STARLINK-1155 4.2 18:47:14 10° NNW 18:51:08 48° NE 18:51:08 48° NE
Cosmos 44 Rocket 3.4 18:48:05 10° NW 18:52:57 66° WSW 18:53:44 56° SSW
STARLINK-1166 4.1 18:52:10 10° NW 18:55:55 52° NNE 18:55:55 52° NNE
Terra 3.4 18:59:38 23° NE 18:59:38 23° NE 19:02:43 10° NNE
STARLINK-1165 4.1 18:57:07 10° NW 19:00:42 55° N 19:00:42 55° N
Lacrosse 5 4.5 19:02:45 10° NNE 19:03:26 10° NNE 19:04:07 10° NE
Cosmos 1452 Rocket 3.5 19:05:40 64° ENE 19:05:40 64° ENE 19:10:31 10° NNE
STARLINK-1169 4.2 19:02:04 10° NW 19:05:29 55° N 19:05:29 55° N
IGS 5A 3.8 19:07:44 64° NNW 19:07:44 64° NNW 19:11:17 10° NNW
Cosmos 2142 Rocket 4.3 19:04:37 10° N 19:10:45 73° E 19:11:26 66° SE
STARLINK-1178 4.3 19:07:02 10° NW 19:10:15 52° NNW 19:10:15 52° NNW
Okean 3 3.9 19:11:27 58° WNW 19:11:27 58° WNW 19:15:32 10° N
Cosmos 1420 Rocket 4.2 19:10:51 49° SW 19:12:07 68° WNW 19:17:18 10° N
USA 245 4.2 19:13:17 45° NW 19:13:17 45° NW 19:15:54 10° NNW
Meteor 1-13 Rocket 4.0 19:14:30 79° S 19:14:51 88° E 19:20:30 10° N
STARLINK-1120 4.5 19:12:00 10° NW 19:15:03 48° NW 19:15:03 48° NW
Cosmos 407 Rocket 3.8 19:11:55 10° NNW 19:17:10 59° WSW 19:17:37 57° SW
Cosmos 2221 Rocket 4.1 19:17:14 55° W 19:17:14 55° W 19:21:38 10° N
Cosmos 724 4.1 19:12:02 10° NNW 19:17:59 81° ENE 19:18:21 77° ESE
Cosmos 1300 Rocket 4.4 19:14:11 10° N 19:17:22 44° NNE 19:17:22 44° NNE
Meteor 2-4 Rocket 4.3 19:16:58 36° SW 19:18:47 51° W 19:24:00 10° N
Cosmos 371 Rocket 3.6 19:21:27 64° N 19:21:27 64° N 19:25:34 10° NNE
SPOT 1/Viking Rocket 3.5 19:21:53 77° W 19:21:53 77° W 19:27:02 10° NNW
Resurs 01 Rocket 3.8 19:21:43 17° WSW 19:22:55 18° W 19:26:01 10° NW
COSMOS 2406 3.1 19:18:07 10° NNW 19:23:55 84° ENE 19:23:55 84° ENE
Nadezhda 4 Rocket 4.2 19:29:05 54° ENE 19:29:05 54° ENE 19:34:25 10° NNE
SPOT 5 3.3 19:33:14 64° N 19:33:14 64° N 19:37:39 10° N
Hubble Space Telescope 3.5 19:29:52 10° W 19:30:11 12° W 19:30:11 12° W
H-2A ROCKET BODY 3.9 19:37:22 49° SSE 19:38:44 52° SE 20:14:20 10° E
Cosmos 2279 Rocket 4.0 19:37:33 10° N 19:43:46 71° W 19:43:59 70° WSW
ERS-1 Rocket 4.1 20:00:29 38° WNW 20:00:29 38° WNW 20:04:15 10° NNW
Cosmos 2082 Rocket 2.8 19:58:02 10° NNW 20:02:27 51° NNE 20:02:27 51° NNE
Cosmos 1092 Rocket 4.4 20:07:42 53° NNE 20:07:42 53° NNE 20:12:24 10° N
SeaSat 1 3.6 20:05:02 10° NNE 20:08:33 41° NNW 20:08:33 41° NNW
Cosmos 2369 Rocket 4.2 20:15:28 17° NE 20:15:28 17° NE 20:17:00 10° NE
Cosmos 1833 Rocket 3.5 20:07:00 10° NNW 20:11:09 46° WNW 20:11:09 46° WNW
Cosmos 1943 Rocket 3.8 20:26:07 27° NE 20:26:07 27° NE 20:28:36 10° NNE
Terra 4.0 20:38:31 20° WNW 20:38:31 20° WNW 20:40:31 10° NW
Lacrosse 5 3.7 20:42:23 10° NNW 20:44:50 28° NNW 20:44:50 28° NNW
USA 215 3.8 20:58:28 51° NE 20:58:28 51° NE 21:04:33 10° NNW
CENTAUR R/B 4.2 21:30:05 10° NNW 21:37:42 38° NE 21:40:34 31° E
ATLAS 2AS CENTAUR R/B 3.2 21:48:30 70° NNW 21:48:30 70° NNW 21:55:46 10° NNE
Cosmos 2369 Rocket 4.0 21:57:14 25° NW 21:57:14 25° NW 22:00:42 10° N
NOSS 3-2 (A) 4.2 21:55:43 10° NNW 22:02:51 75° NNW 22:02:51 75° NNW
Cosmos 1943 Rocket 4.5 22:07:35 15° NW 22:07:35 15° NW 22:10:20 10° NNW
USA 238 DEB 4.2 22:03:21 10° NNW 22:08:58 57° NW 22:08:58 57° NW
USA 238 4.2 22:03:27 10° NNW 22:09:05 58° NW 22:09:05 58° NW
Resurs 1-4 Rocket 4.2 22:15:48 10° NE 22:18:01 18° ENE 22:18:01 18° ENE
COSMOS 2455 3.8 22:28:32 42° NNW 22:28:32 42° NNW 22:32:46 10° NNE
VEP-3 4.2 22:39:21 58° SSE 22:39:21 58° SSE 23:13:20 10° ESE
VEP-3 4.2 22:39:21 58° SSE 22:39:21 58° SSE 23:13:21 10° ESE
Nadezhda 1 Rocket 4.5 22:55:27 10° N 23:01:16 54° ENE 23:01:16 54° ENE
NOSS 3-2 (C) 4.4 23:00:41 10° NW 23:07:07 52° W 23:07:07 52° W
Cosmos 2297 Rocket 4.5 23:06:33 10° NNE 23:10:33 19° ENE 23:14:31 10° ESE
SL-16 R/B 2.9 23:10:56 54° E 23:11:23 56° ENE 23:17:23 10° N
CZ-4B R/B 4.3 23:11:19 10° NNE 23:15:20 48° NE 23:15:20 48° NE
ATLAS CENTAUR R/B 4.1 23:20:47 13° NNW 23:20:47 13° NNW 23:21:51 10° NNW
Timation 2 Rocket 4.1 23:13:19 10° NNW 23:19:32 66° ENE 23:19:35 66° ENE
ATLAS 3B R/B 2.7 23:17:27 10° NNW 23:24:21 78° ENE 23:25:34 63° SE
Cosmos 1745 Rocket 4.3 23:28:05 56° NW 23:28:05 56° NW 23:33:20 10° N
CENTAUR R/B 3.5 23:20:33 10° NW 23:27:41 49° W 23:27:41 49° W
IRS-1D 4.0 23:29:55 10° NNE 23:34:47 56° E 23:34:47 56° E
Cosmos 1455 4.4 23:32:27 10° NNE 23:34:29 23° NE 23:34:29 23° NE
Meteor 2-1 Rocket 4.3 23:30:21 10° N 23:35:43 68° ENE 23:35:43 68° ENE
GP-B 4.2 23:35:16 10° NNE 23:38:44 42° ENE 23:38:44 42° ENE
Cosmos 1697 Rocket 3.2 23:41:27 49° ESE 23:41:37 49° ESE 23:47:03 10° NNE
Cosmos 1763 Rocket 3.7 23:43:43 64° ENE 23:43:43 64° ENE 23:48:16 10° NNE
Cosmos 2227 Rocket 3.7 23:41:15 10° N 23:46:21 34° ENE 23:51:26 10° SE
IRS-P3 4.5 23:43:58 10° NNE 23:49:11 55° E 23:49:32 54° ESE
CZ-2D R/B 2.8 23:44:45 10° N 23:48:55 42° NW 23:48:55 42° NW
ADEOS II 2.2 23:47:45 10° NNE 23:52:59 65° ESE 23:53:11 65° ESE
